Time,TemperatureF,DewpointF,PressureIn,WindDirection,WindDirectionDegrees,WindSpeedMPH,WindSpeedGustMPH,Humidity,HourlyPrecipIn,Conditions,Clouds,dailyrainin,SolarRadiationWatts/m^2,SoftwareType,DateUTC
2013-03-16 00:00:00,30.1,27.8,29.84,NNE,30,2.0,5.0,91,0.00,,---,0.00,0.00,VWS V14.01,2013-03-16 05:00:00,
2013-03-16 00:05:00,29.9,27.6,29.84,NE,55,3.0,8.0,91,0.00,,---,0.00,0.00,VWS V14.01,2013-03-16 05:05:00,
2013-03-16 00:10:00,29.8,27.5,29.85,ENE,60,2.0,10.0,91,0.00,,---,0.00,0.00,VWS V14.01,2013-03-16 05:10:00,
2013-03-16 00:15:00,29.6,27.6,29.84,NE,34,8.0,11.0,92,0.00,,---,0.00,0.00,VWS V14.01,2013-03-16 05:15:00,
2013-03-16 00:20:00,29.4,27.4,29.84,NNE,32,3.0,11.0,92,0.00,,---,0.00,0.00,VWS V14.01,2013-03-16 05:20:00,
2013-03-16 00:25:00,29.3,27.5,29.84,NE,51,5.0,11.0,93,0.00,,---,0.00,0.00,VWS V14.01,2013-03-16 05:25:00,
2013-03-16 00:30:00,29.1,27.3,29.85,ENE,67,5.0,11.0,93,0.00,,---,0.00,0.00,VWS V14.01,2013-03-16 05:30:00,
2013-03-16 00:35:00,28.9,27.1,29.85,NE,50,6.0,11.0,93,0.00,,---,0.00,0.00,VWS V14.01,2013-03-16 05:35:00,
2013-03-16 00:40:00,28.8,27.0,29.84,ENE,60,7.0,11.0,93,0.00,,---,0.00,0.00,VWS V14.01,2013-03-16 05:40:00,
2013-03-16 00:45:00,28.7,26.9,29.84,NE,41,5.0,11.0,93,0.00,,---,0.00,0.00,VWS V14.01,2013-03-16 05:45:00,
2013-03-16 00:50:00,28.6,27.1,29.84,NE,47,3.0,11.0,94,0.00,,---,0.00,0.00,VWS V14.01,2013-03-16 05:50:00,
2013-03-16 00:55:00,28.5,27.0,29.84,ENE,66,5.0,11.0,94,0.00,,---,0.00,0.00,VWS V14.01,2013-03-16 05:55:00,
2013-03-16 01:00:00,28.4,26.9,29.83,NNE,30,6.0,9.0,94,0.00,,---,0.00,0.00,VWS V14.01,2013-03-16 06:00:00,
2013-03-16 01:05:00,28.2,26.7,29.84,ENE,60,7.0,14.0,94,0.00,,---,0.00,0.00,VWS V14.01,2013-03-16 06:05:00,
2013-03-16 01:10:00,28.0,26.5,29.84,ENE,63,9.0,14.0,94,0.00,,---,0.00,0.00,VWS V14.01,2013-03-16 06:10:00,
2013-03-16 01:15:00,27.9,26.4,29.84,NE,46,4.0,14.0,94,0.00,,---,0.00,0.00,VWS V14.01,2013-03-16 06:15:00,
2013-03-16 01:20:00,27.9,26.4,29.84,NE,53,5.0,14.0,94,0.00,,---,0.00,0.00,VWS V14.01,2013-03-16 06:20:00,
2013-03-16 01:25:00,27.9,26.4,29.84,ENE,57,2.0,14.0,94,0.00,,---,0.00,0.00,VWS V14.01,2013-03-16 06:25:00,
2013-03-16 01:30:00,27.9,26.4,29.84,East,98,3.0,14.0,94,0.00,,---,0.00,0.00,VWS V14.01,2013-03-16 06:30:00,
2013-03-16 01:35:00,27.9,26.4,29.84,ENE,62,9.0,14.0,94,0.00,,---,0.00,0.00,VWS V14.01,2013-03-16 06:35:00,
2013-03-16 01:40:00,27.8,26.3,29.83,NE,52,6.0,14.0,94,0.00,,---,0.00,0.00,VWS V14.01,2013-03-16 06:40:00,
2013-03-16 01:45:00,27.8,26.3,29.83,NNE,32,7.0,14.0,94,0.00,,---,0.00,0.00,VWS V14.01,2013-03-16 06:45:00,
2013-03-16 01:50:00,27.8,26.0,29.83,NE,45,5.0,14.0,93,0.00,,---,0.00,0.00,VWS V14.01,2013-03-16 06:50:00,
2013-03-16 01:55:00,27.8,26.0,29.84,NE,55,5.0,14.0,93,0.00,,---,0.00,0.00,VWS V14.01,2013-03-16 06:55:00,
2013-03-16 02:00:00,27.8,26.0,29.84,ENE,74,1.0,4.0,93,0.00,,---,0.00,0.00,VWS V14.01,2013-03-16 07:00:00,
2013-03-16 02:05:00,27.8,26.0,29.84,NE,53,1.0,9.0,93,0.00,,---,0.00,0.00,VWS V14.01,2013-03-16 07:05:00,
2013-03-16 02:10:00,27.8,26.0,29.84,ENE,59,7.0,9.0,93,0.00,,---,0.00,0.00,VWS V14.01,2013-03-16 07:10:00,
2013-03-16 02:15:00,27.7,25.7,29.84,NE,45,7.0,9.0,92,0.00,,---,0.00,0.00,VWS V14.01,2013-03-16 07:15:00,
2013-03-16 02:20:00,27.7,25.7,29.84,ENE,61,4.0,9.0,92,0.00,,---,0.00,0.00,VWS V14.01,2013-03-16 07:20:00,
2013-03-16 02:25:00,27.6,25.6,29.84,NE,49,4.0,9.0,92,0.00,,---,0.00,0.00,VWS V14.01,2013-03-16 07:25:00,
2013-03-16 02:30:00,27.5,25.5,29.85,East,98,5.0,10.0,92,0.00,,---,0.00,0.00,VWS V14.01,2013-03-16 07:30:00,
2013-03-16 02:35:00,27.5,25.5,29.85,NE,49,5.0,10.0,92,0.00,,---,0.00,0.00,VWS V14.01,2013-03-16 07:35:00,
2013-03-16 02:40:00,27.5,25.5,29.85,ENE,58,4.0,10.0,92,0.00,,---,0.00,0.00,VWS V14.01,2013-03-16 07:40:00,
2013-03-16 02:45:00,27.5,25.5,29.84,NE,44,3.0,10.0,92,0.00,,---,0.00,0.00,VWS V14.01,2013-03-16 07:45:00,
2013-03-16 02:50:00,27.4,25.6,29.84,East,91,5.0,10.0,93,0.00,,---,0.00,0.00,VWS V14.01,2013-03-16 07:50:00,
2013-03-16 02:55:00,27.3,25.5,29.84,NE,52,5.0,10.0,93,0.00,,---,0.00,0.00,VWS V14.01,2013-03-16 07:55:00,
2013-03-16 03:00:00,27.2,25.5,29.84,NNE,32,3.0,3.0,93,0.00,,---,0.00,0.00,VWS V14.01,2013-03-16 08:00:00,
2013-03-16 03:05:00,27.2,25.5,29.84,NE,52,2.0,4.0,93,0.00,,---,0.00,0.00,VWS V14.01,2013-03-16 08:05:00,
2013-03-16 03:10:00,27.2,25.5,29.84,NE,40,4.0,6.0,93,0.00,,---,0.00,0.00,VWS V14.01,2013-03-16 08:10:00,
2013-03-16 03:15:00,27.1,25.4,29.84,ENE,77,4.0,11.0,93,0.00,,---,0.00,0.00,VWS V14.01,2013-03-16 08:15:00,
2013-03-16 03:20:00,26.9,25.1,29.84,NE,50,4.0,11.0,93,0.00,,---,0.00,0.00,VWS V14.01,2013-03-16 08:20:00,
2013-03-16 03:25:00,26.8,25.0,29.83,NE,55,5.0,11.0,93,0.00,,---,0.00,0.00,VWS V14.01,2013-03-16 08:25:00,
2013-03-16 03:30:00,26.7,25.0,29.83,East,95,2.0,12.0,93,0.00,,---,0.00,0.00,VWS V14.01,2013-03-16 08:30:00,
2013-03-16 03:35:00,26.6,24.9,29.84,ENE,61,9.0,12.0,93,0.00,,---,0.00,0.00,VWS V14.01,2013-03-16 08:35:00,
2013-03-16 03:40:00,26.5,24.8,29.84,NE,54,4.0,12.0,93,0.00,,---,0.00,0.00,VWS V14.01,2013-03-16 08:40:00,
2013-03-16 03:45:00,26.5,24.8,29.85,NE,51,4.0,12.0,93,0.00,,---,0.00,0.00,VWS V14.01,2013-03-16 08:45:00,
2013-03-16 03:49:00,26.4,24.6,29.85,NE,49,3.0,12.0,93,0.00,,---,0.00,0.00,VWS V14.01,2013-03-16 08:49:00,
2013-03-16 03:54:00,26.5,24.8,29.85,NE,38,4.0,12.0,93,0.00,,---,0.00,0.00,VWS V14.01,2013-03-16 08:54:00,
2013-03-16 03:59:00,26.4,24.6,29.85,NE,44,4.0,7.0,93,0.00,,---,0.00,0.00,VWS V14.01,2013-03-16 08:59:00,
2013-03-16 04:00:00,26.4,24.6,29.85,NE,52,7.0,12.0,93,0.00,,---,0.00,0.00,VWS V14.01,2013-03-16 09:00:00,
2013-03-16 04:04:00,26.1,24.4,29.85,ENE,63,4.0,11.0,93,0.00,,---,0.00,0.00,VWS V14.01,2013-03-16 09:04:00,
2013-03-16 04:09:00,26.0,24.3,29.85,NE,55,4.0,11.0,93,0.00,,---,0.00,0.00,VWS V14.01,2013-03-16 09:09:00,
2013-03-16 04:14:00,25.7,24.0,29.85,NE,48,3.0,11.0,93,0.00,,---,0.00,0.00,VWS V14.01,2013-03-16 09:14:00,
2013-03-16 04:19:00,25.5,23.8,29.85,NE,51,5.0,11.0,93,0.00,,---,0.00,0.00,VWS V14.01,2013-03-16 09:19:00,
2013-03-16 04:24:00,25.3,23.6,29.85,NNE,21,4.0,11.0,93,0.00,,---,0.00,0.00,VWS V14.01,2013-03-16 09:24:00,
2013-03-16 04:29:00,25.2,23.5,29.86,NE,40,4.0,11.0,93,0.00,,---,0.00,0.00,VWS V14.01,2013-03-16 09:29:00,
2013-03-16 04:34:00,25.2,25.2,29.86,NNE,27,4.0,11.0,100,0.00,,---,0.00,0.00,VWS V14.01,2013-03-16 09:34:00,
2013-03-16 04:39:00,24.8,23.1,29.86,NE,36,6.0,13.0,93,0.00,,---,0.00,0.00,VWS V14.01,2013-03-16 09:39:00,
2013-03-16 04:44:00,24.4,22.4,29.86,NNE,26,6.0,13.0,92,0.00,,---,0.00,0.00,VWS V14.01,2013-03-16 09:44:00,
2013-03-16 04:49:00,24.2,22.2,29.87,ENE,62,5.0,13.0,92,0.00,,---,0.00,0.00,VWS V14.01,2013-03-16 09:49:00,
2013-03-16 04:54:00,24.2,22.5,29.87,NE,51,5.0,13.0,93,0.00,,---,0.00,0.00,VWS V14.01,2013-03-16 09:54:00,
2013-03-16 04:59:00,24.2,22.5,29.88,NE,43,5.0,5.0,93,0.00,,---,0.00,0.00,VWS V14.01,2013-03-16 09:59:00,
2013-03-16 05:00:00,24.2,22.5,29.88,NE,40,5.0,13.0,93,0.00,,---,0.00,0.00,VWS V14.01,2013-03-16 10:00:00,
2013-03-16 05:04:00,23.8,21.8,29.88,NE,37,4.0,9.0,92,0.00,,---,0.00,0.00,VWS V14.01,2013-03-16 10:04:00,
2013-03-16 05:09:00,23.6,21.6,29.88,NE,51,5.0,9.0,92,0.00,,---,0.00,0.00,VWS V14.01,2013-03-16 10:09:00,
2013-03-16 05:14:00,23.4,21.4,29.88,NE,49,5.0,9.0,92,0.00,,---,0.00,0.00,VWS V14.01,2013-03-16 10:14:00,
2013-03-16 05:19:00,23.3,21.3,29.88,NE,44,6.0,9.0,92,0.00,,---,0.00,0.00,VWS V14.01,2013-03-16 10:19:00,
2013-03-16 05:24:00,23.1,21.1,29.89,ENE,74,3.0,9.0,92,0.00,,---,0.00,0.00,VWS V14.01,2013-03-16 10:24:00,
2013-03-16 05:29:00,23.0,21.0,29.89,NE,42,4.0,9.0,92,0.00,,---,0.00,0.00,VWS V14.01,2013-03-16 10:29:00,
2013-03-16 05:34:00,22.9,20.9,29.89,NE,43,8.0,9.0,92,0.00,,---,0.00,0.00,VWS V14.01,2013-03-16 10:34:00,
2013-03-16 05:39:00,22.6,20.6,29.90,NNE,26,4.0,12.0,92,0.00,,---,0.00,0.00,VWS V14.01,2013-03-16 10:39:00,
2013-03-16 05:44:00,22.5,20.5,29.90,NE,53,4.0,12.0,92,0.00,,---,0.00,0.00,VWS V14.01,2013-03-16 10:44:00,
2013-03-16 05:49:00,22.5,20.5,29.90,NE,54,5.0,12.0,92,0.00,,---,0.00,0.00,VWS V14.01,2013-03-16 10:49:00,
2013-03-16 05:54:00,22.4,20.4,29.90,NE,36,3.0,12.0,92,0.00,,---,0.00,0.00,VWS V14.01,2013-03-16 10:54:00,
2013-03-16 05:59:00,22.4,20.4,29.90,NNE,33,2.0,3.0,92,0.00,,---,0.00,0.00,VWS V14.01,2013-03-16 10:59:00,
2013-03-16 06:00:00,22.4,20.4,29.90,NNE,33,3.0,12.0,92,0.00,,---,0.00,0.00,VWS V14.01,2013-03-16 11:00:00,
2013-03-16 06:04:00,22.4,20.4,29.91,NNE,26,3.0,9.0,92,0.00,,---,0.00,0.00,VWS V14.01,2013-03-16 11:04:00,
2013-03-16 06:09:00,22.3,20.3,29.91,ENE,64,7.0,9.0,92,0.00,,---,0.00,0.00,VWS V14.01,2013-03-16 11:09:00,
2013-03-16 06:14:00,22.2,20.0,29.91,NE,40,4.0,10.0,91,0.00,,---,0.00,0.00,VWS V14.01,2013-03-16 11:14:00,
2013-03-16 06:19:00,22.2,20.2,29.91,NE,50,5.0,10.0,92,0.00,,---,0.00,0.00,VWS V14.01,2013-03-16 11:19:00,
2013-03-16 06:24:00,22.2,20.0,29.92,NE,40,2.0,10.0,91,0.00,,---,0.00,0.00,VWS V14.01,2013-03-16 11:24:00,
2013-03-16 06:29:00,22.2,20.0,29.92,NE,46,2.0,10.0,91,0.00,,---,0.00,0.00,VWS V14.01,2013-03-16 11:29:00,
2013-03-16 06:34:00,22.1,19.9,29.92,ENE,58,7.0,10.0,91,0.00,,---,0.00,0.00,VWS V14.01,2013-03-16 11:34:00,
2013-03-16 06:39:00,22.1,19.9,29.92,NE,40,5.0,10.0,91,0.00,,---,0.00,0.00,VWS V14.01,2013-03-16 11:39:00,
2013-03-16 06:44:00,22.1,19.9,29.93,NE,42,2.0,10.0,91,0.00,,---,0.00,0.00,VWS V14.01,2013-03-16 11:44:00,
2013-03-16 06:49:00,22.1,19.9,29.93,NE,52,3.0,10.0,91,0.00,,---,0.00,0.00,VWS V14.01,2013-03-16 11:49:00,
2013-03-16 06:54:00,22.1,19.9,29.93,NNE,29,5.0,10.0,91,0.00,,---,0.00,0.00,VWS V14.01,2013-03-16 11:54:00,
2013-03-16 06:59:00,22.0,19.8,29.93,NE,34,2.0,2.0,91,0.00,,---,0.00,0.00,VWS V14.01,2013-03-16 11:59:00,
2013-03-16 07:00:00,22.0,19.8,29.93,NE,34,2.0,10.0,91,0.00,,---,0.00,0.00,VWS V14.01,2013-03-16 12:00:00,
2013-03-16 07:04:00,22.0,19.8,29.93,NNE,27,2.0,5.0,91,0.00,,---,0.00,0.00,VWS V14.01,2013-03-16 12:04:00,
2013-03-16 07:09:00,21.8,19.6,29.94,NNE,22,4.0,7.0,91,0.00,,---,0.00,0.00,VWS V14.01,2013-03-16 12:09:00,
2013-03-16 07:14:00,21.6,19.4,29.94,NE,34,5.0,9.0,91,0.00,,---,0.00,0.00,VWS V14.01,2013-03-16 12:14:00,
2013-03-16 07:19:00,21.5,19.3,29.95,NE,49,3.0,9.0,91,0.00,,---,0.00,0.00,VWS V14.01,2013-03-16 12:19:00,
2013-03-16 07:24:00,21.4,19.2,29.95,NE,38,2.0,9.0,91,0.00,,---,0.00,5.00,VWS V14.01,2013-03-16 12:24:00,
2013-03-16 07:29:00,21.4,19.2,29.95,NE,44,1.0,9.0,91,0.00,,---,0.00,7.00,VWS V14.01,2013-03-16 12:29:00,
2013-03-16 07:34:00,21.5,19.3,29.96,NE,38,3.0,9.0,91,0.00,,---,0.00,9.00,VWS V14.01,2013-03-16 12:34:00,
2013-03-16 07:39:00,21.5,19.3,29.96,NE,38,1.0,9.0,91,0.00,,---,0.00,11.00,VWS V14.01,2013-03-16 12:39:00,
2013-03-16 07:44:00,21.6,19.4,29.97,NE,38,3.0,9.0,91,0.00,,---,0.00,12.00,VWS V14.01,2013-03-16 12:44:00,
2013-03-16 07:49:00,21.6,19.4,29.97,NE,36,2.0,9.0,91,0.00,,---,0.00,14.00,VWS V14.01,2013-03-16 12:49:00,
2013-03-16 07:54:00,21.6,19.4,29.97,NNE,33,4.0,9.0,91,0.00,,---,0.00,19.00,VWS V14.01,2013-03-16 12:54:00,
2013-03-16 07:59:00,21.5,19.3,29.97,NNE,29,4.0,4.0,91,0.00,,---,0.00,25.00,VWS V14.01,2013-03-16 12:59:00,
2013-03-16 08:00:00,21.5,19.3,29.97,NNE,29,3.0,9.0,91,0.00,,---,0.00,25.00,VWS V14.01,2013-03-16 13:00:00,
2013-03-16 08:04:00,21.4,18.9,29.98,NE,36,2.0,4.0,90,0.00,,---,0.00,25.00,VWS V14.01,2013-03-16 13:04:00,
2013-03-16 08:09:00,21.3,18.8,29.98,ENE,74,2.0,5.0,90,0.00,,---,0.00,26.00,VWS V14.01,2013-03-16 13:09:00,
2013-03-16 08:14:00,21.3,18.8,29.98,ENE,74,5.0,7.0,90,0.00,,---,0.00,30.00,VWS V14.01,2013-03-16 13:14:00,
2013-03-16 08:19:00,21.3,18.8,29.98,NE,42,4.0,7.0,90,0.00,,---,0.00,37.00,VWS V14.01,2013-03-16 13:19:00,
2013-03-16 08:24:00,21.3,18.8,29.98,NE,37,5.0,7.0,90,0.00,,---,0.00,44.00,VWS V14.01,2013-03-16 13:24:00,
2013-03-16 08:29:00,21.3,18.8,29.98,NE,49,8.0,8.0,90,0.00,,---,0.00,51.00,VWS V14.01,2013-03-16 13:29:00,
2013-03-16 08:34:00,21.2,18.7,29.98,NE,48,4.0,8.0,90,0.00,,---,0.00,51.00,VWS V14.01,2013-03-16 13:34:00,
2013-03-16 08:39:00,21.2,18.5,29.99,NE,46,3.0,8.0,89,0.00,,---,0.00,54.00,VWS V14.01,2013-03-16 13:39:00,
2013-03-16 08:44:00,21.3,18.6,29.99,NNE,22,1.0,8.0,89,0.00,,---,0.00,56.00,VWS V14.01,2013-03-16 13:44:00,
2013-03-16 08:49:00,21.4,18.7,30.00,NNE,20,5.0,8.0,89,0.00,,---,0.00,58.00,VWS V14.01,2013-03-16 13:49:00,
2013-03-16 08:54:00,21.4,18.7,30.00,NNE,18,3.0,8.0,89,0.00,,---,0.00,63.00,VWS V14.01,2013-03-16 13:54:00,
2013-03-16 08:59:00,21.4,18.7,30.01,North,11,2.0,8.0,89,0.00,,---,0.00,69.00,VWS V14.01,2013-03-16 13:59:00,
2013-03-16 09:00:00,21.4,18.7,30.01,North,11,2.0,8.0,89,0.00,,---,0.00,69.00,VWS V14.01,2013-03-16 14:00:00,
2013-03-16 09:04:00,21.4,18.7,30.02,NNE,15,4.0,5.0,89,0.00,,---,0.00,77.00,VWS V14.01,2013-03-16 14:04:00,
2013-03-16 09:09:00,21.4,18.7,30.02,NE,39,1.0,5.0,89,0.00,,---,0.00,83.00,VWS V14.01,2013-03-16 14:09:00,
2013-03-16 09:14:00,21.5,18.8,30.02,NE,41,1.0,5.0,89,0.00,,---,0.00,90.00,VWS V14.01,2013-03-16 14:14:00,
2013-03-16 09:19:00,21.6,18.9,30.02,NNE,27,2.0,5.0,89,0.00,,---,0.00,95.00,VWS V14.01,2013-03-16 14:19:00,
2013-03-16 09:24:00,21.6,18.6,30.01,NNE,30,2.0,5.0,88,0.00,,---,0.00,118.00,VWS V14.01,2013-03-16 14:24:00,
2013-03-16 09:29:00,21.6,18.6,30.01,NNE,22,2.0,5.0,88,0.00,,---,0.00,127.00,VWS V14.01,2013-03-16 14:29:00,
2013-03-16 09:34:00,21.7,18.7,30.01,NE,51,3.0,5.0,88,0.00,,---,0.00,141.00,VWS V14.01,2013-03-16 14:34:00,
2013-03-16 09:39:00,21.8,18.8,30.01,NE,35,4.0,5.0,88,0.00,,---,0.00,151.00,VWS V14.01,2013-03-16 14:39:00,
2013-03-16 09:44:00,21.8,18.8,30.02,NNE,24,3.0,5.0,88,0.00,,---,0.00,163.00,VWS V14.01,2013-03-16 14:44:00,
2013-03-16 09:49:00,21.9,18.9,30.02,NNE,24,3.0,5.0,88,0.00,,---,0.00,172.00,VWS V14.01,2013-03-16 14:49:00,
2013-03-16 09:54:00,22.0,18.7,30.03,North,11,2.0,5.0,87,0.00,,---,0.00,156.00,VWS V14.01,2013-03-16 14:54:00,
2013-03-16 09:59:00,22.0,18.5,30.03,NE,41,2.0,3.0,86,0.00,,---,0.00,167.00,VWS V14.01,2013-03-16 14:59:00,
2013-03-16 10:00:00,22.0,18.5,30.03,NE,41,3.0,5.0,86,0.00,,---,0.00,167.00,VWS V14.01,2013-03-16 15:00:00,
2013-03-16 10:04:00,22.0,18.5,30.03,NE,38,1.0,3.0,86,0.00,,---,0.00,193.00,VWS V14.01,2013-03-16 15:04:00,
2013-03-16 10:09:00,22.1,18.6,30.02,NE,42,4.0,4.0,86,0.00,,---,0.00,206.00,VWS V14.01,2013-03-16 15:09:00,
2013-03-16 10:14:00,22.4,18.9,30.02,NE,42,2.0,4.0,86,0.00,,---,0.00,207.00,VWS V14.01,2013-03-16 15:14:00,
2013-03-16 10:19:00,22.6,19.0,30.03,NE,48,3.0,4.0,86,0.00,,---,0.00,221.00,VWS V14.01,2013-03-16 15:19:00,
2013-03-16 10:24:00,22.7,19.1,30.03,NE,34,3.0,4.0,86,0.00,,---,0.00,234.00,VWS V14.01,2013-03-16 15:24:00,
2013-03-16 10:29:00,22.8,19.2,30.03,North,355,4.0,6.0,86,0.00,,---,0.00,218.00,VWS V14.01,2013-03-16 15:29:00,
2013-03-16 10:34:00,23.0,19.2,30.04,North,355,1.0,6.0,85,0.00,,---,0.00,209.00,VWS V14.01,2013-03-16 15:34:00,
2013-03-16 10:39:00,23.0,18.9,30.04,NNW,346,2.0,6.0,84,0.00,,---,0.00,209.00,VWS V14.01,2013-03-16 15:39:00,
2013-03-16 10:44:00,23.1,19.0,30.05,NNW,342,3.0,6.0,84,0.00,,---,0.00,207.00,VWS V14.01,2013-03-16 15:44:00,
2013-03-16 10:49:00,23.3,19.2,30.05,NNW,348,2.0,6.0,84,0.00,,---,0.00,207.00,VWS V14.01,2013-03-16 15:49:00,
2013-03-16 10:54:00,23.4,19.3,30.05,North,360,1.0,6.0,84,0.00,,---,0.00,229.00,VWS V14.01,2013-03-16 15:54:00,
2013-03-16 10:59:00,23.5,19.4,30.05,NNW,332,3.0,3.0,84,0.00,,---,0.00,253.00,VWS V14.01,2013-03-16 15:59:00,
2013-03-16 11:00:00,23.5,19.4,30.05,NNW,332,2.0,6.0,84,0.00,,---,0.00,253.00,VWS V14.01,2013-03-16 16:00:00,
2013-03-16 11:04:00,23.5,19.4,30.05,NNW,345,3.0,5.0,84,0.00,,---,0.00,285.00,VWS V14.01,2013-03-16 16:04:00,
2013-03-16 11:09:00,23.6,19.5,30.05,North,5,2.0,5.0,84,0.00,,---,0.00,330.00,VWS V14.01,2013-03-16 16:09:00,
2013-03-16 11:14:00,23.9,19.8,30.05,North,355,3.0,5.0,84,0.00,,---,0.00,330.00,VWS V14.01,2013-03-16 16:14:00,
2013-03-16 11:19:00,24.0,19.3,30.06,North,360,2.0,5.0,82,0.00,,---,0.00,369.00,VWS V14.01,2013-03-16 16:19:00,
2013-03-16 11:24:00,24.2,19.5,30.06,North,360,3.0,5.0,82,0.00,,---,0.00,378.00,VWS V14.01,2013-03-16 16:24:00,
2013-03-16 11:29:00,24.4,19.7,30.06,North,360,1.0,5.0,82,0.00,,---,0.00,350.00,VWS V14.01,2013-03-16 16:29:00,
2013-03-16 11:34:00,24.6,20.2,30.06,ENE,63,0.0,6.0,83,0.00,,---,0.00,364.00,VWS V14.01,2013-03-16 16:34:00,
2013-03-16 11:39:00,24.7,20.3,30.06,NE,43,3.0,6.0,83,0.00,,---,0.00,464.00,VWS V14.01,2013-03-16 16:39:00,
2013-03-16 11:44:00,24.7,20.0,30.06,North,360,3.0,6.0,82,0.00,,---,0.00,381.00,VWS V14.01,2013-03-16 16:44:00,
2013-03-16 11:49:00,24.9,20.2,30.06,North,350,0.0,6.0,82,0.00,,---,0.00,385.00,VWS V14.01,2013-03-16 16:49:00,
2013-03-16 11:54:00,25.1,20.1,30.06,North,11,5.0,6.0,81,0.00,,---,0.00,464.00,VWS V14.01,2013-03-16 16:54:00,
2013-03-16 11:59:00,25.2,19.9,30.06,North,9,1.0,1.0,80,0.00,,---,0.00,522.00,VWS V14.01,2013-03-16 16:59:00,
2013-03-16 12:00:00,25.2,19.9,30.06,North,9,1.0,6.0,80,0.00,,---,0.00,522.00,VWS V14.01,2013-03-16 17:00:00,
2013-03-16 12:04:00,25.4,20.4,30.06,NE,47,2.0,5.0,81,0.00,,---,0.00,584.00,VWS V14.01,2013-03-16 17:04:00,
2013-03-16 12:09:00,25.9,20.9,30.06,NNE,24,3.0,5.0,81,0.00,,---,0.00,531.00,VWS V14.01,2013-03-16 17:09:00,
2013-03-16 12:14:00,26.3,21.0,30.06,NE,48,1.0,5.0,80,0.00,,---,0.00,527.00,VWS V14.01,2013-03-16 17:14:00,
2013-03-16 12:19:00,26.5,20.9,30.06,North,355,3.0,5.0,79,0.00,,---,0.00,541.00,VWS V14.01,2013-03-16 17:19:00,
2013-03-16 12:24:00,26.8,20.9,30.06,NNE,24,3.0,7.0,78,0.00,,---,0.00,459.00,VWS V14.01,2013-03-16 17:24:00,
2013-03-16 12:29:00,26.5,20.3,30.06,ENE,64,1.0,7.0,77,0.00,,---,0.00,478.00,VWS V14.01,2013-03-16 17:29:00,
2013-03-16 12:34:00,26.6,20.7,30.06,NNE,13,1.0,7.0,78,0.00,,---,0.00,471.00,VWS V14.01,2013-03-16 17:34:00,
2013-03-16 12:39:00,26.9,20.7,30.06,ENE,59,5.0,7.0,77,0.00,,---,0.00,499.00,VWS V14.01,2013-03-16 17:39:00,
2013-03-16 12:44:00,27.5,21.5,30.06,NE,40,1.0,7.0,78,0.01,,---,0.01,482.00,VWS V14.01,2013-03-16 17:44:00,
2013-03-16 12:49:00,28.4,22.1,30.06,North,355,2.0,7.0,77,0.01,,---,0.01,476.00,VWS V14.01,2013-03-16 17:49:00,
2013-03-16 12:54:00,29.4,22.5,30.06,North,355,2.0,7.0,75,0.01,,---,0.01,480.00,VWS V14.01,2013-03-16 17:54:00,
2013-03-16 12:59:00,29.6,21.7,30.06,NNW,338,2.0,2.0,72,0.01,,---,0.01,494.00,VWS V14.01,2013-03-16 17:59:00,
2013-03-16 13:00:00,29.7,21.8,30.06,NNW,338,1.0,7.0,72,0.01,,---,0.01,494.00,VWS V14.01,2013-03-16 18:00:00,
2013-03-16 13:04:00,29.7,21.5,30.06,NW,314,2.0,4.0,71,0.01,,---,0.01,476.00,VWS V14.01,2013-03-16 18:04:00,
2013-03-16 13:09:00,29.6,21.4,30.06,West,259,3.0,4.0,71,0.01,,---,0.01,446.00,VWS V14.01,2013-03-16 18:09:00,
2013-03-16 13:14:00,29.6,21.4,30.06,WSW,250,3.0,6.0,71,0.01,,---,0.01,443.00,VWS V14.01,2013-03-16 18:14:00,
2013-03-16 13:19:00,29.5,21.3,30.06,WSW,237,3.0,6.0,71,0.01,,---,0.01,462.00,VWS V14.01,2013-03-16 18:19:00,
2013-03-16 13:24:00,29.1,20.9,30.06,WSW,238,5.0,6.0,71,0.01,,---,0.01,439.00,VWS V14.01,2013-03-16 18:24:00,
2013-03-16 13:29:00,28.7,20.8,30.06,West,265,3.0,6.0,72,0.01,,---,0.01,464.00,VWS V14.01,2013-03-16 18:29:00,
2013-03-16 13:34:00,28.7,21.1,30.06,WSW,249,2.0,6.0,73,0.01,,---,0.01,487.00,VWS V14.01,2013-03-16 18:34:00,
2013-03-16 13:39:00,29.0,21.4,30.06,WSW,257,6.0,6.0,73,0.01,,---,0.01,499.00,VWS V14.01,2013-03-16 18:39:00,
2013-03-16 13:44:00,29.3,21.4,30.06,WSW,247,6.0,6.0,72,0.01,,---,0.01,534.00,VWS V14.01,2013-03-16 18:44:00,
2013-03-16 13:49:00,29.4,21.2,30.06,WSW,255,5.0,6.0,71,0.01,,---,0.01,478.00,VWS V14.01,2013-03-16 18:49:00,
2013-03-16 13:54:00,29.5,21.6,30.06,SW,236,4.0,6.0,72,0.01,,---,0.01,504.00,VWS V14.01,2013-03-16 18:54:00,
2013-03-16 13:59:00,29.8,21.9,30.06,WSW,239,3.0,6.0,72,0.01,,---,0.01,508.00,VWS V14.01,2013-03-16 18:59:00,
2013-03-16 14:00:00,29.8,21.9,30.06,WSW,239,3.0,6.0,72,0.01,,---,0.01,508.00,VWS V14.01,2013-03-16 19:00:00,
2013-03-16 14:04:00,30.0,22.1,30.06,WSW,258,5.0,7.0,72,0.00,,---,0.01,443.00,VWS V14.01,2013-03-16 19:04:00,
2013-03-16 14:09:00,30.1,21.9,30.06,WSW,238,3.0,7.0,71,0.00,,---,0.01,424.00,VWS V14.01,2013-03-16 19:09:00,
2013-03-16 14:14:00,30.1,21.9,30.06,WSW,246,5.0,7.0,71,0.00,,---,0.01,403.00,VWS V14.01,2013-03-16 19:14:00,
2013-03-16 14:19:00,29.8,21.2,30.06,WSW,241,4.0,7.0,70,0.00,,---,0.01,401.00,VWS V14.01,2013-03-16 19:19:00,
2013-03-16 14:24:00,29.8,21.2,30.05,SW,234,4.0,7.0,70,0.00,,---,0.01,431.00,VWS V14.01,2013-03-16 19:24:00,
2013-03-16 14:29:00,29.9,21.7,30.06,West,277,5.0,7.0,71,0.00,,---,0.01,499.00,VWS V14.01,2013-03-16 19:29:00,
2013-03-16 14:34:00,30.2,21.6,30.06,WSW,242,4.0,7.0,70,0.00,,---,0.01,448.00,VWS V14.01,2013-03-16 19:34:00,
2013-03-16 14:39:00,30.1,21.2,30.06,SW,229,6.0,7.0,69,0.00,,---,0.01,452.00,VWS V14.01,2013-03-16 19:39:00,
2013-03-16 14:44:00,29.9,21.0,30.06,NW,304,2.0,7.0,69,0.00,,---,0.01,512.00,VWS V14.01,2013-03-16 19:44:00,
2013-03-16 14:49:00,30.5,21.2,30.06,West,259,0.0,7.0,68,0.00,,---,0.01,446.00,VWS V14.01,2013-03-16 19:49:00,
2013-03-16 14:54:00,30.8,21.1,30.06,WSW,249,4.0,7.0,67,0.00,,---,0.01,403.00,VWS V14.01,2013-03-16 19:54:00,
2013-03-16 14:59:00,30.8,21.5,30.06,West,263,5.0,7.0,68,0.00,,---,0.01,469.00,VWS V14.01,2013-03-16 19:59:00,
2013-03-16 15:00:00,30.8,21.5,30.06,West,263,5.0,7.0,68,0.00,,---,0.01,469.00,VWS V14.01,2013-03-16 20:00:00,
2013-03-16 15:04:00,31.2,21.5,30.05,West,261,2.0,6.0,67,0.00,,---,0.01,592.00,VWS V14.01,2013-03-16 20:04:00,
2013-03-16 15:09:00,31.7,21.3,30.05,WSW,242,3.0,7.0,65,0.00,,---,0.01,547.00,VWS V14.01,2013-03-16 20:09:00,
2013-03-16 15:14:00,31.5,21.1,30.05,SW,231,4.0,7.0,65,0.00,,---,0.01,383.00,VWS V14.01,2013-03-16 20:14:00,
2013-03-16 15:19:00,31.4,21.4,30.05,NNW,332,2.0,7.0,66,0.00,,---,0.01,373.00,VWS V14.01,2013-03-16 20:19:00,
2013-03-16 15:24:00,31.2,20.8,30.05,West,276,2.0,7.0,65,0.00,,---,0.01,323.00,VWS V14.01,2013-03-16 20:24:00,
2013-03-16 15:29:00,31.2,20.8,30.05,WSW,252,5.0,8.0,65,0.00,,---,0.01,322.00,VWS V14.01,2013-03-16 20:29:00,
2013-03-16 15:34:00,31.1,21.1,30.05,WNW,292,2.0,8.0,66,0.00,,---,0.01,348.00,VWS V14.01,2013-03-16 20:34:00,
2013-03-16 15:39:00,31.1,20.7,30.05,NNW,343,1.0,8.0,65,0.00,,---,0.01,329.00,VWS V14.01,2013-03-16 20:39:00,
2013-03-16 15:44:00,31.3,20.9,30.05,West,261,3.0,8.0,65,0.00,,---,0.01,691.00,VWS V14.01,2013-03-16 20:44:00,
2013-03-16 15:49:00,31.9,20.8,30.05,NNE,16,3.0,9.0,63,0.00,,---,0.01,257.00,VWS V14.01,2013-03-16 20:49:00,
2013-03-16 15:54:00,32.1,20.9,30.05,WSW,248,3.0,9.0,63,0.00,,---,0.01,295.00,VWS V14.01,2013-03-16 20:54:00,
2013-03-16 15:59:00,31.9,20.4,30.05,WSW,240,3.0,3.0,62,0.00,,---,0.01,325.00,VWS V14.01,2013-03-16 20:59:00,
2013-03-16 16:00:00,31.9,20.4,30.05,WSW,240,3.0,9.0,62,0.00,,---,0.01,325.00,VWS V14.01,2013-03-16 21:00:00,
2013-03-16 16:04:00,31.8,20.3,30.05,North,5,3.0,7.0,62,0.00,,---,0.01,322.00,VWS V14.01,2013-03-16 21:04:00,
2013-03-16 16:09:00,31.7,20.9,30.05,NW,313,7.0,7.0,64,0.00,,---,0.01,278.00,VWS V14.01,2013-03-16 21:09:00,
2013-03-16 16:14:00,31.4,20.6,30.05,WNW,292,1.0,8.0,64,0.00,,---,0.01,285.00,VWS V14.01,2013-03-16 21:14:00,
2013-03-16 16:19:00,31.2,20.5,30.05,SW,231,4.0,8.0,64,0.00,,---,0.01,323.00,VWS V14.01,2013-03-16 21:19:00,
2013-03-16 16:24:00,31.1,21.1,30.05,SW,236,4.0,8.0,66,0.00,,---,0.01,311.00,VWS V14.01,2013-03-16 21:24:00,
2013-03-16 16:29:00,30.9,20.9,30.05,SW,233,3.0,8.0,66,0.00,,---,0.01,336.00,VWS V14.01,2013-03-16 21:29:00,
2013-03-16 16:34:00,30.9,20.9,30.05,SW,227,3.0,8.0,66,0.00,,---,0.01,297.00,VWS V14.01,2013-03-16 21:34:00,
2013-03-16 16:39:00,30.8,20.4,30.04,West,272,2.0,8.0,65,0.00,,---,0.01,230.00,VWS V14.01,2013-03-16 21:39:00,
2013-03-16 16:44:00,30.9,20.5,30.04,WSW,238,1.0,8.0,65,0.00,,---,0.01,251.00,VWS V14.01,2013-03-16 21:44:00,
2013-03-16 16:49:00,30.9,20.5,30.04,WNW,303,4.0,8.0,65,0.00,,---,0.01,283.00,VWS V14.01,2013-03-16 21:49:00,
2013-03-16 16:54:00,31.3,21.3,30.04,West,269,3.0,8.0,66,0.00,,---,0.01,241.00,VWS V14.01,2013-03-16 21:54:00,
2013-03-16 16:59:00,31.3,20.5,30.04,NNW,340,8.0,8.0,64,0.00,,---,0.01,214.00,VWS V14.01,2013-03-16 21:59:00,
2013-03-16 17:00:00,31.3,20.5,30.04,North,5,3.0,8.0,64,0.00,,---,0.01,199.00,VWS V14.01,2013-03-16 22:00:00,
2013-03-16 17:04:00,31.2,20.8,30.05,West,265,4.0,8.0,65,0.00,,---,0.01,186.00,VWS V14.01,2013-03-16 22:04:00,
2013-03-16 17:09:00,31.0,20.6,30.05,WSW,246,4.0,8.0,65,0.00,,---,0.01,139.00,VWS V14.01,2013-03-16 22:09:00,
2013-03-16 17:14:00,30.8,20.4,30.05,NNW,345,5.0,8.0,65,0.00,,---,0.01,128.00,VWS V14.01,2013-03-16 22:14:00,
2013-03-16 17:19:00,30.7,20.7,30.05,NNW,345,4.0,8.0,66,0.00,,---,0.01,128.00,VWS V14.01,2013-03-16 22:19:00,
2013-03-16 17:24:00,30.5,20.5,30.05,NNW,333,2.0,8.0,66,0.00,,---,0.01,121.00,VWS V14.01,2013-03-16 22:24:00,
2013-03-16 17:29:00,30.3,20.0,30.05,WSW,237,4.0,8.0,65,0.00,,---,0.01,118.00,VWS V14.01,2013-03-16 22:29:00,
2013-03-16 17:34:00,30.1,19.8,30.05,WSW,257,2.0,8.0,65,0.00,,---,0.01,88.00,VWS V14.01,2013-03-16 22:34:00,
2013-03-16 17:39:00,29.8,19.5,30.05,NW,321,2.0,8.0,65,0.00,,---,0.01,84.00,VWS V14.01,2013-03-16 22:39:00,
2013-03-16 17:44:00,29.7,20.1,30.05,WSW,256,1.0,8.0,67,0.00,,---,0.01,91.00,VWS V14.01,2013-03-16 22:44:00,
2013-03-16 17:49:00,29.7,20.1,30.05,NW,317,0.0,8.0,67,0.00,,---,0.01,77.00,VWS V14.01,2013-03-16 22:49:00,
2013-03-16 17:54:00,29.6,20.0,30.05,North,360,3.0,8.0,67,0.00,,---,0.01,70.00,VWS V14.01,2013-03-16 22:54:00,
2013-03-16 17:59:00,29.5,20.3,30.05,North,355,0.0,8.0,68,0.00,,---,0.01,65.00,VWS V14.01,2013-03-16 22:59:00,
2013-03-16 18:00:00,29.5,20.3,30.05,North,355,0.0,8.0,68,0.00,,---,0.01,65.00,VWS V14.01,2013-03-16 23:00:00,
2013-03-16 18:04:00,29.5,20.3,30.05,WNW,291,1.0,5.0,68,0.00,,---,0.01,70.00,VWS V14.01,2013-03-16 23:04:00,
2013-03-16 18:09:00,29.5,20.6,30.05,West,267,2.0,5.0,69,0.00,,---,0.01,74.00,VWS V14.01,2013-03-16 23:09:00,
2013-03-16 18:14:00,29.4,20.5,30.05,WSW,249,1.0,6.0,69,0.00,,---,0.01,65.00,VWS V14.01,2013-03-16 23:14:00,
2013-03-16 18:19:00,29.2,20.3,30.05,WSW,254,3.0,6.0,69,0.00,,---,0.01,54.00,VWS V14.01,2013-03-16 23:19:00,
2013-03-16 18:24:00,29.0,20.1,30.05,West,269,1.0,6.0,69,0.00,,---,0.01,42.00,VWS V14.01,2013-03-16 23:24:00,
2013-03-16 18:29:00,28.9,20.0,30.05,West,261,3.0,6.0,69,0.00,,---,0.01,39.00,VWS V14.01,2013-03-16 23:29:00,
2013-03-16 18:34:00,28.7,19.8,30.05,WSW,257,3.0,6.0,69,0.00,,---,0.01,30.00,VWS V14.01,2013-03-16 23:34:00,
2013-03-16 18:39:00,28.5,19.6,30.05,WNW,303,1.0,6.0,69,0.00,,---,0.01,26.00,VWS V14.01,2013-03-16 23:39:00,
2013-03-16 18:44:00,28.4,19.9,30.05,WSW,244,4.0,6.0,70,0.00,,---,0.01,21.00,VWS V14.01,2013-03-16 23:44:00,
2013-03-16 18:49:00,28.1,19.6,30.06,WSW,248,4.0,6.0,70,0.00,,---,0.01,14.00,VWS V14.01,2013-03-16 23:49:00,
2013-03-16 18:54:00,27.9,19.4,30.06,WSW,257,1.0,6.0,70,0.00,,---,0.01,9.00,VWS V14.01,2013-03-16 23:54:00,
2013-03-16 18:59:00,27.6,19.1,30.07,West,275,2.0,7.0,70,0.00,,---,0.01,7.00,VWS V14.01,2013-03-16 23:59:00,
2013-03-16 19:00:00,27.6,19.1,30.07,West,275,3.0,7.0,70,0.00,,---,0.01,7.00,VWS V14.01,2013-03-17 00:00:00,
2013-03-16 19:04:00,27.4,18.9,30.06,West,265,3.0,4.0,70,0.00,,---,0.01,0.00,VWS V14.01,2013-03-17 00:04:00,
2013-03-16 19:09:00,27.2,18.7,30.06,NW,307,2.0,4.0,70,0.00,,---,0.01,0.00,VWS V14.01,2013-03-17 00:09:00,
2013-03-16 19:14:00,27.0,18.5,30.07,West,280,2.0,7.0,70,0.00,,---,0.01,0.00,VWS V14.01,2013-03-17 00:14:00,
2013-03-16 19:19:00,26.9,18.4,30.07,West,281,2.0,7.0,70,0.00,,---,0.01,0.00,VWS V14.01,2013-03-17 00:19:00,
2013-03-16 19:24:00,26.8,18.7,30.08,NW,315,1.0,7.0,71,0.00,,---,0.01,0.00,VWS V14.01,2013-03-17 00:24:00,
2013-03-16 19:29:00,26.7,18.6,30.07,NW,315,0.0,7.0,71,0.00,,---,0.01,0.00,VWS V14.01,2013-03-17 00:29:00,
2013-03-16 19:34:00,26.5,18.7,30.08,NW,315,2.0,7.0,72,0.00,,---,0.01,0.00,VWS V14.01,2013-03-17 00:34:00,
2013-03-16 19:39:00,26.4,18.9,30.08,NW,321,1.0,7.0,73,0.00,,---,0.01,0.00,VWS V14.01,2013-03-17 00:39:00,
2013-03-16 19:44:00,26.3,18.8,30.09,North,5,1.0,7.0,73,0.00,,---,0.01,0.00,VWS V14.01,2013-03-17 00:44:00,
2013-03-16 19:49:00,26.2,18.7,30.09,WNW,291,1.0,7.0,73,0.00,,---,0.01,0.00,VWS V14.01,2013-03-17 00:49:00,
2013-03-16 19:54:00,26.1,18.6,30.09,WNW,291,0.0,7.0,73,0.00,,---,0.01,0.00,VWS V14.01,2013-03-17 00:54:00,
2013-03-16 19:59:00,25.9,18.5,30.10,WNW,289,2.0,7.0,73,0.00,,---,0.01,0.00,VWS V14.01,2013-03-17 00:59:00,
2013-03-16 20:00:00,25.9,18.5,30.10,WNW,290,2.0,7.0,73,0.00,,---,0.01,0.00,VWS V14.01,2013-03-17 01:00:00,
2013-03-16 20:04:00,25.7,18.3,30.10,WNW,289,1.0,2.0,73,0.00,,---,0.01,0.00,VWS V14.01,2013-03-17 01:04:00,
2013-03-16 20:09:00,25.5,18.1,30.10,WNW,289,1.0,2.0,73,0.00,,---,0.01,0.00,VWS V14.01,2013-03-17 01:09:00,
2013-03-16 20:14:00,25.3,18.2,30.11,WNW,289,0.0,3.0,74,0.00,,---,0.01,0.00,VWS V14.01,2013-03-17 01:14:00,
2013-03-16 20:19:00,25.2,18.1,30.11,WNW,289,0.0,3.0,74,0.00,,---,0.01,0.00,VWS V14.01,2013-03-17 01:19:00,
2013-03-16 20:24:00,25.0,17.9,30.11,WNW,289,2.0,3.0,74,0.00,,---,0.01,0.00,VWS V14.01,2013-03-17 01:24:00,
2013-03-16 20:29:00,24.9,17.8,30.12,WNW,289,2.0,3.0,74,0.00,,---,0.01,0.00,VWS V14.01,2013-03-17 01:29:00,
2013-03-16 20:34:00,24.8,17.7,30.12,WNW,289,1.0,3.0,74,0.00,,---,0.01,0.00,VWS V14.01,2013-03-17 01:34:00,
2013-03-16 20:39:00,24.7,17.6,30.12,WNW,289,2.0,3.0,74,0.00,,---,0.01,0.00,VWS V14.01,2013-03-17 01:39:00,
2013-03-16 20:44:00,24.6,17.8,30.12,WNW,289,1.0,3.0,75,0.00,,---,0.01,0.00,VWS V14.01,2013-03-17 01:44:00,
2013-03-16 20:49:00,24.6,17.8,30.13,WNW,290,0.0,3.0,75,0.00,,---,0.01,0.00,VWS V14.01,2013-03-17 01:49:00,
2013-03-16 20:54:00,24.5,17.7,30.13,WNW,289,1.0,3.0,75,0.00,,---,0.01,0.00,VWS V14.01,2013-03-17 01:54:00,
2013-03-16 20:59:00,24.5,18.0,30.13,West,277,3.0,3.0,76,0.00,,---,0.01,0.00,VWS V14.01,2013-03-17 01:59:00,
2013-03-16 21:00:00,24.4,17.9,30.13,West,277,3.0,3.0,76,0.00,,---,0.01,0.00,VWS V14.01,2013-03-17 02:00:00,
2013-03-16 21:04:00,24.4,17.9,30.13,West,277,2.0,3.0,76,0.00,,---,0.01,0.00,VWS V14.01,2013-03-17 02:04:00,
2013-03-16 21:09:00,24.4,17.9,30.13,West,277,2.0,3.0,76,0.00,,---,0.01,0.00,VWS V14.01,2013-03-17 02:09:00,
2013-03-16 21:14:00,24.4,17.9,30.13,West,277,0.0,3.0,76,0.00,,---,0.01,0.00,VWS V14.01,2013-03-17 02:14:00,
2013-03-16 21:19:00,24.4,17.9,30.13,West,277,0.0,3.0,76,0.00,,---,0.01,0.00,VWS V14.01,2013-03-17 02:19:00,
2013-03-16 21:24:00,24.3,17.8,30.14,West,277,0.0,3.0,76,0.00,,---,0.01,0.00,VWS V14.01,2013-03-17 02:24:00,
2013-03-16 21:29:00,24.2,17.7,30.13,West,277,1.0,3.0,76,0.00,,---,0.01,0.00,VWS V14.01,2013-03-17 02:29:00,
2013-03-16 21:34:00,24.1,17.6,30.14,West,277,0.0,3.0,76,0.00,,---,0.01,0.00,VWS V14.01,2013-03-17 02:34:00,
2013-03-16 21:39:00,24.0,17.9,30.14,West,277,1.0,3.0,77,0.00,,---,0.01,0.00,VWS V14.01,2013-03-17 02:39:00,
2013-03-16 21:44:00,23.9,17.8,30.14,West,277,0.0,3.0,77,0.00,,---,0.01,0.00,VWS V14.01,2013-03-17 02:44:00,
2013-03-16 21:49:00,23.8,17.7,30.14,West,277,0.0,3.0,77,0.00,,---,0.01,0.00,VWS V14.01,2013-03-17 02:49:00,
2013-03-16 21:54:00,23.8,17.7,30.14,West,277,0.0,3.0,77,0.00,,---,0.01,0.00,VWS V14.01,2013-03-17 02:54:00,
2013-03-16 21:59:00,23.6,17.5,30.14,West,277,0.0,3.0,77,0.00,,---,0.01,0.00,VWS V14.01,2013-03-17 02:59:00,
2013-03-16 22:00:00,23.7,17.6,30.14,West,277,0.0,3.0,77,0.00,,---,0.01,0.00,VWS V14.01,2013-03-17 03:00:00,
2013-03-16 22:04:00,23.5,17.4,30.14,West,277,1.0,1.0,77,0.00,,---,0.01,0.00,VWS V14.01,2013-03-17 03:04:00,
2013-03-16 22:09:00,23.3,17.2,30.14,West,277,0.0,2.0,77,0.00,,---,0.01,0.00,VWS V14.01,2013-03-17 03:09:00,
2013-03-16 22:14:00,23.2,17.1,30.14,West,277,0.0,2.0,77,0.00,,---,0.01,0.00,VWS V14.01,2013-03-17 03:14:00,
2013-03-16 22:19:00,23.1,17.0,30.14,West,277,0.0,2.0,77,0.00,,---,0.01,0.00,VWS V14.01,2013-03-17 03:19:00,
2013-03-16 22:24:00,22.9,16.8,30.14,West,277,0.0,2.0,77,0.00,,---,0.01,0.00,VWS V14.01,2013-03-17 03:24:00,
2013-03-16 22:29:00,22.7,16.9,30.14,West,277,0.0,2.0,78,0.00,,---,0.01,0.00,VWS V14.01,2013-03-17 03:29:00,
2013-03-16 22:34:00,22.5,16.7,30.15,West,277,0.0,2.0,78,0.00,,---,0.01,0.00,VWS V14.01,2013-03-17 03:34:00,
2013-03-16 22:39:00,22.4,16.6,30.15,West,277,0.0,2.0,78,0.00,,---,0.01,0.00,VWS V14.01,2013-03-17 03:39:00,
2013-03-16 22:44:00,22.2,16.4,30.15,West,277,0.0,2.0,78,0.00,,---,0.01,0.00,VWS V14.01,2013-03-17 03:44:00,
2013-03-16 22:49:00,22.1,16.6,30.15,West,277,0.0,2.0,79,0.00,,---,0.01,0.00,VWS V14.01,2013-03-17 03:49:00,
2013-03-16 22:54:00,22.0,16.5,30.15,West,277,1.0,2.0,79,0.00,,---,0.01,0.00,VWS V14.01,2013-03-17 03:54:00,
2013-03-16 22:59:00,21.8,16.6,30.16,West,277,0.0,2.0,80,0.00,,---,0.01,0.00,VWS V14.01,2013-03-17 03:59:00,
2013-03-16 23:00:00,21.8,16.6,30.16,West,277,0.0,0.0,80,0.00,,---,0.01,0.00,VWS V14.01,2013-03-17 04:00:00,
2013-03-16 23:05:00,21.7,16.8,30.16,West,277,0.0,1.0,81,0.00,,---,0.01,0.00,VWS V14.01,2013-03-17 04:05:00,
2013-03-16 23:10:00,21.5,16.6,30.16,West,277,0.0,1.0,81,0.00,,---,0.01,0.00,VWS V14.01,2013-03-17 04:10:00,
2013-03-16 23:15:00,21.5,16.9,30.16,West,277,0.0,2.0,82,0.00,,---,0.01,0.00,VWS V14.01,2013-03-17 04:15:00,
2013-03-16 23:20:00,21.5,16.9,30.16,West,277,0.0,2.0,82,0.00,,---,0.01,0.00,VWS V14.01,2013-03-17 04:20:00,
2013-03-16 23:25:00,21.5,16.9,30.16,West,277,0.0,2.0,82,0.00,,---,0.01,0.00,VWS V14.01,2013-03-17 04:25:00,
2013-03-16 23:30:00,21.5,16.6,30.17,West,277,0.0,2.0,81,0.00,,---,0.01,0.00,VWS V14.01,2013-03-17 04:30:00,
2013-03-16 23:35:00,21.5,16.6,30.17,West,275,0.0,4.0,81,0.00,,---,0.01,0.00,VWS V14.01,2013-03-17 04:35:00,
2013-03-16 23:40:00,21.5,16.3,30.17,West,275,0.0,4.0,80,0.00,,---,0.01,0.00,VWS V14.01,2013-03-17 04:40:00,
2013-03-16 23:45:00,21.5,16.3,30.17,West,275,0.0,4.0,80,0.00,,---,0.01,0.00,VWS V14.01,2013-03-17 04:45:00,
2013-03-16 23:50:00,21.5,16.0,30.17,West,275,0.0,4.0,79,0.00,,---,0.01,0.00,VWS V14.01,2013-03-17 04:50:00,
2013-03-16 23:55:00,21.6,16.1,30.18,West,275,0.0,4.0,79,0.00,,---,0.01,0.00,VWS V14.01,2013-03-17 04:55:00,